Satellite-Ground Cal/Val Region Overpasses Predictions

Prediction of Satellite NPP Overpassing Cal/Val Region: PacNW

Region Location: (Latitude: 10.00, Longitude: 139.50) to (Latitude: 22.70, Longitude: 165.60).

Table of predicted overpasses for the next 14.0 days since TLE Epoch: 9/9/2016
Interval Starting Time Starting Location Ending Time Ending Location
1 09/09/2016 15:30:33 ( 22.65, 152.45) 09/09/2016 15:34:08 ( 10.03, 149.45)
2 09/10/2016 02:39:36 ( 10.01, 159.99) 09/10/2016 02:43:12 ( 22.69, 156.98)
3 09/10/2016 15:11:29 ( 22.70, 157.23) 09/10/2016 15:15:05 ( 10.02, 154.21)
4 09/11/2016 02:20:34 ( 10.02, 164.75) 09/11/2016 02:24:10 ( 22.70, 161.74)
5 09/11/2016 14:52:27 ( 22.69, 161.99) 09/11/2016 14:56:03 ( 10.01, 158.97)
6 09/12/2016 03:43:02 ( 10.03, 144.13) 09/12/2016 03:46:37 ( 22.65, 141.13)
7 09/12/2016 14:34:44 ( 17.99, 165.59) 09/12/2016 14:37:00 ( 10.00, 163.73)
8 09/12/2016 16:14:54 ( 22.67, 141.37) 09/12/2016 16:17:05 ( 14.99, 139.51)
9 09/13/2016 03:23:59 ( 10.04, 148.89) 09/13/2016 03:27:34 ( 22.66, 145.89)
10 09/13/2016 15:55:52 ( 22.67, 146.13) 09/13/2016 15:59:27 ( 10.05, 143.13)
11 09/14/2016 03:04:57 ( 10.05, 153.65) 09/14/2016 03:08:32 ( 22.67, 150.65)
12 09/14/2016 15:36:49 ( 22.66, 150.88) 09/14/2016 15:40:24 ( 10.04, 147.88)
13 09/15/2016 02:45:54 ( 10.06, 158.41) 09/15/2016 02:49:29 ( 22.68, 155.41)
14 09/15/2016 15:17:47 ( 22.65, 155.64) 09/15/2016 15:21:22 ( 10.03, 152.64)
15 09/16/2016 02:26:51 ( 10.01, 163.18) 09/16/2016 02:30:27 ( 22.69, 160.17)
16 09/16/2016 14:58:44 ( 22.64, 160.40) 09/16/2016 15:02:19 ( 10.02, 157.40)
17 09/17/2016 02:10:38 ( 20.00, 165.59) 09/17/2016 02:11:24 ( 22.70, 164.92)
18 09/17/2016 03:49:18 ( 10.02, 142.56) 09/17/2016 03:52:53 ( 22.65, 139.56)
19 09/17/2016 14:39:41 ( 22.69, 165.17) 09/17/2016 14:43:17 ( 10.01, 162.16)
20 09/17/2016 16:21:11 ( 22.68, 139.80) 09/17/2016 16:21:31 ( 21.51, 139.51)
21 09/18/2016 03:30:16 ( 10.03, 147.32) 09/18/2016 03:33:51 ( 22.65, 144.32)
22 09/18/2016 16:02:08 ( 22.67, 144.56) 09/18/2016 16:05:43 ( 10.05, 141.55)
23 09/19/2016 03:11:13 ( 10.04, 152.08) 09/19/2016 03:14:48 ( 22.66, 149.08)
24 09/19/2016 15:43:06 ( 22.66, 149.31) 09/19/2016 15:46:41 ( 10.04, 146.31)
25 09/20/2016 02:52:11 ( 10.05, 156.84) 09/20/2016 02:55:46 ( 22.67, 153.84)
26 09/20/2016 15:24:04 ( 22.65, 154.07) 09/20/2016 15:27:39 ( 10.03, 151.07)
27 09/21/2016 02:33:07 ( 10.00, 161.61) 09/21/2016 02:36:43 ( 22.68, 158.59)
28 09/21/2016 15:05:01 ( 22.64, 158.83) 09/21/2016 15:08:36 ( 10.02, 155.83)
29 09/22/2016 02:15:02 ( 13.36, 165.60) 09/22/2016 02:17:41 ( 22.69, 163.35)
30 09/22/2016 03:55:35 ( 10.02, 140.99) 09/22/2016 03:57:24 ( 16.43, 139.50)
31 09/22/2016 14:45:58 ( 22.69, 163.60) 09/22/2016 14:49:34 ( 10.01, 160.59)


NCC Satellite Cal/Val Overpasses Prediction Service
